Theta_e
313 313 315 322 319 316 316 317 313 318 318 317 317 316 317 316 315 319 319 319 319 324 329 333 334 334 333 332 332 333 333 333 332 331 332 333 335 335 334 332 329 325 319 319 318 316 313 310 309
315 319 321 318 315 315 316 312 316 315 316 317 318 318 317 318 319 320 320 319 319 325 326 331 332 333 333 333 331 331 332 334 334 333 333 335 336 335 330 325 321 324 321 318 316 313 312 309 306
318 318 319 311 310 314 315 312 314 315 316 317 317 318 318 319 320 319 319 319 319 323 327 330 332 333 334 335 335 334 335 336 335 333 333 335 335 334 332 329 325 319 320 317 315 312 311 308 305
318 319 314 313 315 313 313 312 313 315 316 317 317 316 318 319 319 318 317 318 319 320 325 329 331 332 333 335 336 336 336 336 335 334 333 334 334 333 331 327 325 318 319 317 313 311 310 307 305
318 316 313 313 314 313 310 313 314 315 315 317 317 316 316 318 319 317 316 316 317 320 321 327 329 330 331 334 335 336 336 335 335 334 333 333 333 332 331 325 321 316 316 315 312 311 309 306 305
317 312 312 314 313 312 311 313 314 314 314 315 316 315 316 318 318 316 316 316 316 318 320 322 327 330 331 336 337 335 334 334 334 333 333 332 332 332 329 324 317 313 315 314 312 310 308 305 304
313 307 309 311 312 313 313 313 313 313 313 315 316 314 315 315 316 317 316 316 317 317 318 321 323 327 330 334 336 336 334 334 333 333 332 332 332 331 327 325 321 314 313 313 312 310 308 304 304
316 309 311 311 313 314 313 313 314 314 314 315 316 312 313 313 314 316 316 316 317 317 317 319 321 325 328 329 332 334 334 333 333 332 331 331 330 329 328 326 326 325 320 313 312 310 308 304 303
314 307 308 310 310 313 313 313 313 314 313 314 314 313 312 313 314 315 316 317 317 317 318 319 320 322 326 331 331 335 335 332 332 332 330 330 328 327 327 328 329 326 326 324 317 313 309 305 303
310 307 308 308 309 313 313 313 314 314 312 313 313 313 313 313 314 314 315 316 316 316 317 318 320 321 323 327 329 333 334 332 331 331 331 330 328 328 328 328 328 327 327 326 324 320 313 308 304
311 309 308 311 312 313 313 314 314 313 313 312 312 312 312 313 313 313 313 314 314 315 315 316 317 319 322 324 328 330 335 331 332 331 330 329 329 328 328 326 327 326 325 325 325 322 318 312 308
313 313 312 314 314 314 313 314 313 313 312 312 312 311 312 313 314 314 314 314 314 314 314 314 315 317 321 324 326 329 331 331 330 330 329 328 328 327 327 326 326 324 324 324 323 324 321 316 312
313 312 313 314 314 313 312 312 312 311 309 310 310 311 312 312 312 312 313 313 314 314 314 314 313 317 320 324 326 327 327 327 330 328 329 326 326 326 326 327 326 324 326 323 322 323 319 318 316
311 311 312 313 312 312 311 310 311 308 309 310 310 311 311 311 311 311 312 312 313 313 313 313 314 316 320 325 328 328 326 326 330 329 327 326 327 326 326 326 327 325 323 323 321 320 318 318 318
311 311 308 310 310 310 310 310 309 308 309 310 310 309 309 310 310 311 311 312 313 313 313 313 314 317 322 329 329 328 327 329 327 327 327 327 326 326 327 326 324 322 321 320 319 318 317 318 317
310 307 312 311 310 310 310 312 306 307 309 308 307 307 307 308 308 309 311 313 315 316 315 314 314 317 323 329 330 328 324 324 323 326 325 324 325 326 324 323 322 323 322 319 318 317 317 316 315
307 312 309 311 309 309 309 311 305 307 308 305 304 304 304 305 306 308 310 313 316 319 320 319 319 321 324 329 326 325 322 322 323 323 323 322 322 321 320 320 320 319 318 317 317 316 315 314 313
311 309 308 310 310 309 309 309 304 305 306 302 301 301 302 304 304 306 308 311 316 319 322 323 324 325 326 324 323 321 320 319 319 319 318 318 317 317 317 317 316 316 315 314 314 313 313 312 310
308 309 311 309 308 309 308 308 306 302 301 300 299 300 301 302 302 304 306 308 311 315 318 320 321 321 320 319 320 319 319 317 315 313 313 312 312 312 311 310 309 310 307 307 307 307 307 307 306
309 309 309 308 307 308 308 309 304 301 301 300 299 299 299 300 301 302 304 306 308 310 311 313 315 316 316 315 313 313 311 307 305 304 304 304 304 305 305 305 305 305 305 305 305 305 305 305 304
307 308 308 311 310 308 309 310 305 300 299 299 298 299 299 299 300 301 302 303 304 305 306 306 306 306 305 305 305 304 303 302 301 301 301 300 300 300 300 300 300 300 300 300 299 300 300 301 301
310 306 308 309 311 313 308 316 306 302 300 298 297 298 298 297 297 298 298 298 299 300 301 301 301 301 301 301 300 300 300 299 297 295 294 294 294 294 294 294 293 293 293 293 293 292 292 293 293
312 307 307 309 310 308 308 310 307 302 302 299 297 297 297 296 295 295 295 296 296 296 297 298 298 298 297 298 298 297 297 295 293 293 293 293 293 292 292 292 291 291 291 291 291 291 291 290 290
305 307 306 305 306 310 309 311 310 304 304 300 297 297 296 295 294 294 294 295 295 295 296 296 296 295 294 294 294 294 293 292 292 292 292 291 291 290 290 289 289 289 288 288 288 288 287 287 288
306 308 311 312 311 313 307 308 311 304 302 301 298 297 296 295 294 294 294 293 294 294 294 294 294 294 293 293 292 292 292 291 291 291 290 290 290 290 289 289 289 288 288 287 287 287 287 286 286
305 308 312 313 313 313 308 311 311 301 301 301 299 298 296 294 294 293 293 293 293 293 293 293 293 293 291 291 291 291 291 291 290 290 290 289 289 289 288 288 288 288 288 288 288 287 287 287 286
307 308 308 308 295 307 309 309 302 300 299 299 297 296 295 294 294 293 292 292 292 292 292 291 291 291 291 291 290 290 290 290 289 289 288 288 287 287 287 287 286 286 286 286 286 286 286 286 286
307 306 310 308 309 309 310 309 311 302 300 298 297 296 296 295 294 293 293 292 291 291 291 291 290 291 290 290 290 289 289 288 288 287 287 286 285 285 285 285 285 286 286 286 286 285 285 285 285
307 308 307 308 309 310 308 309 304 304 300 298 298 296 296 296 295 295 294 292 292 291 290 290 290 290 289 289 289 288 287 287 286 286 286 286 285 285 285 285 285 285 285 284 284 284 284 284 284
306 307 308 312 308 304 306 308 300 301 301 299 298 297 297 297 296 296 295 292 291 290 290 290 289 289 289 288 288 287 287 287 286 286 286 286 285 285 284 284 283 283 283 283 282 283 283 284 284
Wind_Speed
3 2 2 2 3 4 1 1 1 0 1 1 1 1 2 2 3 2 4 2 2 8 18 19 18 15 14 12 12 11 9 7 5 4 4 3 2 3 3 3 3 3 4 5 6 6 6 6 4
4 3 3 3 4 3 3 3 2 2 1 1 3 2 2 0 0 1 3 1 3 8 15 18 17 15 14 13 12 11 8 7 5 4 2 2 3 4 6 11 10 4 4 6 7 7 7 6 5
4 3 2 4 3 4 3 3 2 1 1 2 3 2 2 1 2 2 3 3 3 7 12 15 16 15 13 12 12 11 9 7 6 5 3 4 3 2 10 12 14 8 5 6 7 7 8 7 7
3 2 5 4 3 2 2 2 3 1 1 2 2 3 1 1 1 2 3 4 4 5 9 13 14 14 13 12 11 10 9 7 6 5 4 5 4 5 8 12 13 8 4 5 6 7 7 6 5
3 3 4 4 1 1 3 3 1 1 0 1 1 0 2 2 2 3 4 5 5 4 6 12 14 13 13 13 12 11 10 8 7 6 6 6 6 6 8 12 12 4 2 3 5 6 5 4 4
3 3 4 2 2 2 3 2 1 1 1 1 2 2 3 4 5 4 4 4 3 3 4 8 13 14 13 12 13 12 11 10 9 7 7 7 7 6 9 11 11 6 3 3 5 6 5 4 3
5 4 4 4 2 3 1 2 3 2 1 1 1 1 3 7 3 1 2 3 2 2 3 4 9 13 14 13 12 12 12 11 10 9 8 8 8 7 9 7 9 10 7 7 7 6 5 4 3
3 5 3 2 3 3 0 1 3 2 1 1 2 2 2 7 3 4 4 4 4 3 3 4 7 11 14 15 14 12 12 11 10 10 9 10 10 9 10 4 9 12 12 8 8 7 6 5 3
2 4 2 4 6 3 0 2 2 3 2 1 3 4 3 1 2 4 5 6 6 6 5 6 7 9 11 14 14 13 12 12 11 11 10 11 11 8 9 9 11 9 12 12 10 8 6 6 5
4 3 6 4 4 3 1 0 4 2 3 1 1 4 8 8 6 5 7 8 9 9 10 9 10 9 10 11 13 14 13 13 13 12 11 10 11 8 11 11 11 11 13 13 12 11 8 7 7
3 4 3 2 6 4 2 3 2 1 2 2 4 7 3 2 2 2 4 6 9 11 13 14 13 12 11 11 11 12 14 13 12 11 11 11 10 11 11 11 12 12 12 13 15 12 10 9 9
1 2 4 2 3 2 2 2 3 6 2 2 6 4 4 3 2 2 2 4 6 8 9 13 16 15 11 10 9 9 11 12 9 10 12 11 10 11 10 12 11 13 14 14 15 15 11 10 9
2 2 4 6 9 10 8 8 5 5 4 5 7 7 5 3 3 3 4 6 8 10 11 13 17 17 13 11 10 7 5 7 8 11 13 7 10 9 11 11 11 13 12 14 16 13 13 11 10
4 3 8 9 9 8 5 0 5 4 10 9 6 5 4 4 4 5 4 5 6 7 8 9 15 18 16 13 11 8 6 6 7 12 11 11 9 9 10 11 11 6 11 14 11 11 11 9 10
1 3 6 5 4 4 5 3 2 8 9 7 5 4 3 4 4 5 7 6 4 3 1 5 14 17 18 17 15 12 8 6 6 5 6 6 8 9 9 9 11 10 12 13 11 12 11 12 14
2 4 3 2 3 0 4 3 3 5 4 5 5 4 3 4 4 4 5 5 6 5 4 7 14 18 19 18 16 13 10 7 5 4 4 5 5 4 2 3 4 6 6 10 13 13 13 14 17
5 3 4 7 3 2 2 3 7 5 6 8 6 5 5 5 6 7 7 8 9 11 11 13 16 19 19 18 16 13 10 7 6 4 2 1 2 4 5 6 6 8 12 15 15 16 17 18 19
7 4 4 5 2 2 3 7 4 8 8 9 9 9 8 8 10 10 11 12 14 16 18 19 20 21 21 19 17 14 10 8 6 3 2 2 4 7 9 10 12 13 14 15 15 17 18 19 20
6 4 5 4 3 4 7 6 1 6 9 11 12 13 13 14 14 13 13 15 17 18 19 21 22 24 20 19 15 12 8 6 5 7 5 3 3 1 1 2 4 5 7 8 10 11 12 12 16
3 4 5 4 4 4 6 8 1 4 2 6 14 15 18 20 21 21 20 21 21 22 21 20 19 17 16 15 18 18 19 19 19 17 15 13 11 10 8 7 7 6 6 7 9 13 14 15 17
5 6 5 7 2 3 2 5 5 3 7 9 12 16 19 21 24 25 26 28 28 28 28 28 27 27 26 24 23 22 20 20 18 16 14 14 13 12 12 12 12 12 12 14 15 15 17 18 16
6 9 7 6 4 4 1 5 3 4 5 6 12 16 18 20 22 24 25 26 27 28 27 26 26 25 24 21 19 16 16 14 17 15 14 13 12 12 12 12 13 14 14 14 16 18 18 19 21
5 6 7 4 3 1 2 1 3 6 6 8 14 18 19 20 22 24 25 26 26 25 24 23 22 21 20 16 14 13 14 16 15 13 10 11 11 12 13 14 14 15 16 17 17 17 19 19 20
9 6 5 4 3 3 10 9 4 6 7 11 16 22 23 23 22 23 24 24 23 20 19 17 16 17 15 14 14 14 15 14 11 11 10 11 12 13 14 16 18 19 20 21 21 22 22 22 21
3 6 1 1 1 6 1 4 7 5 4 17 25 31 29 26 25 25 24 22 21 18 15 14 12 14 13 12 12 13 13 12 12 13 14 15 17 19 20 21 22 23 24 25 25 25 26 27 27
8 7 5 7 4 2 2 6 5 1 3 15 31 35 31 28 26 25 23 22 19 16 13 11 10 10 10 9 10 11 11 11 12 12 13 13 15 17 18 19 22 24 27 30 33 35 35 35 34
6 6 4 5 2 2 4 4 1 3 3 19 25 31 33 30 28 25 23 21 19 16 13 10 8 8 7 7 7 5 6 6 7 8 10 12 14 16 18 21 24 26 28 31 33 34 35 37 39
4 8 3 1 2 4 3 4 5 7 10 11 20 29 36 33 29 27 25 23 20 16 13 11 8 6 4 4 5 7 8 9 10 11 14 16 18 22 25 27 30 33 35 38 41 43 43 43 40
4 4 2 4 4 5 1 5 4 8 15 19 26 32 41 39 35 30 26 24 21 18 15 12 9 4 1 3 6 8 10 11 15 18 20 21 24 26 28 31 33 36 38 41 42 43 44 44 45
2 7 7 5 5 2 2 6 1 3 16 23 28 36 43 41 36 31 27 26 23 20 18 13 9 4 2 3 7 11 13 15 17 20 22 24 26 27 30 32 35 39 42 43 43 42 41 42 44
Wind_Direction
5 32 108 115 63 65 54 146 277 263 284 197 135 144 146 138 155 174 0 126 87 165 181 183 184 183 180 177 175 174 170 171 167 157 140 141 108 358 8 358 343 354 15 20 21 20 16 19 24
33 76 90 97 82 68 292 265 198 211 205 112 134 114 81 52 64 28 32 91 81 155 177 186 187 187 185 186 186 192 196 191 189 184 161 130 68 31 39 7 355 334 349 4 16 9 11 8 6
48 53 76 88 106 146 172 230 249 267 142 144 130 98 115 96 55 70 32 114 91 154 172 187 190 190 190 189 194 197 197 196 195 196 185 167 143 329 335 343 344 343 352 7 11 6 8 15 11
32 63 61 77 111 196 163 309 228 337 81 60 104 108 131 125 95 67 68 108 98 139 171 188 194 194 195 193 195 197 199 203 203 203 206 209 248 301 325 336 338 335 353 9 9 5 11 23 22
36 68 60 81 273 253 259 288 298 85 76 47 44 72 88 53 96 113 110 106 99 131 169 189 197 201 200 196 199 199 203 207 210 219 227 234 265 297 322 334 338 351 360 6 2 6 11 23 43
62 69 66 162 256 280 274 321 187 95 33 19 78 17 82 67 92 115 125 120 107 132 167 191 200 207 209 198 198 206 208 212 216 222 230 243 265 287 318 342 5 357 15 11 3 3 2 13 29
102 76 167 161 236 310 212 346 153 138 28 56 9 58 110 69 48 142 182 191 171 153 176 193 207 213 215 214 208 209 217 216 223 227 236 250 262 283 310 347 18 22 11 5 2 0 355 357 0
94 93 117 215 190 209 257 123 118 76 183 356 1 54 34 339 314 236 228 223 214 195 196 206 211 217 220 223 218 217 217 227 232 236 242 254 267 284 301 332 356 6 16 5 359 352 346 330 326
93 64 161 205 165 205 128 71 172 304 235 27 62 5 324 261 183 220 224 225 219 218 218 227 228 224 223 225 226 218 220 223 232 237 245 256 265 274 290 304 319 343 355 360 357 349 328 313 306
88 108 214 192 200 184 303 136 320 271 323 243 91 350 275 272 269 239 227 222 222 225 231 229 227 231 227 223 226 224 218 227 233 239 246 257 269 268 273 284 307 333 342 345 340 346 330 307 299
131 173 199 220 223 243 187 287 235 273 300 166 298 319 291 227 243 256 241 239 241 241 235 236 228 220 225 221 222 224 224 230 237 242 241 254 263 263 266 285 297 311 327 333 333 324 326 313 297
78 239 212 241 190 226 235 226 256 229 220 262 306 148 121 112 78 38 346 301 280 268 251 237 228 214 209 214 213 216 230 230 236 244 249 256 267 268 282 280 297 300 309 313 319 317 315 305 299
162 263 247 264 266 272 264 240 254 296 264 182 140 134 111 72 37 13 343 325 304 286 271 245 220 206 192 194 197 197 205 223 225 231 247 258 268 281 279 285 294 298 295 304 307 314 311 302 297
180 254 278 281 263 257 230 119 170 120 140 141 138 94 57 33 24 11 348 325 305 293 271 243 204 192 181 180 181 178 177 188 194 211 221 237 250 260 271 283 283 281 304 306 315 315 309 297 294
134 311 319 261 257 225 178 106 109 147 165 124 101 89 66 41 28 3 353 356 360 350 327 191 178 178 172 171 179 176 156 154 169 201 210 218 236 239 252 256 259 306 308 302 311 317 320 319 308
73 45 346 280 161 238 170 229 22 157 229 117 113 110 96 81 61 50 47 47 47 52 91 139 157 163 166 168 164 159 152 162 180 193 200 220 88 150 112 323 298 285 288 317 306 299 298 305 310
5 222 215 315 215 103 176 230 180 27 177 130 121 111 101 90 88 91 88 89 89 87 101 120 138 146 155 151 154 155 155 167 171 142 157 218 299 329 338 328 318 312 303 298 294 296 299 303 306
194 205 224 230 186 165 192 257 128 36 144 129 121 114 109 104 94 100 103 105 108 107 108 113 119 126 129 135 137 139 154 140 111 90 61 22 321 308 303 295 290 292 294 294 296 296 298 307 310
143 180 193 234 243 179 229 242 28 102 117 131 125 123 116 108 104 109 113 115 116 117 116 115 117 115 121 125 132 141 154 141 133 112 106 99 93 113 267 311 313 315 320 325 317 319 316 321 321
156 168 232 280 228 172 254 254 339 27 86 151 143 132 124 117 116 112 113 116 119 118 117 119 114 117 116 120 114 115 112 105 98 93 92 84 77 72 65 56 45 32 15 354 342 339 339 342 342
206 188 205 222 358 235 322 252 206 56 109 138 143 137 131 126 120 116 113 109 110 112 113 113 111 110 106 103 104 106 103 101 99 88 79 68 58 51 43 35 27 19 11 6 2 355 351 346 346
224 204 180 183 139 234 125 283 236 168 150 156 155 151 141 134 126 121 116 114 110 107 107 106 105 102 100 102 105 105 98 89 79 70 64 56 47 38 29 21 13 6 2 354 352 348 345 340 338
235 145 162 144 171 88 219 283 243 140 204 190 179 165 153 144 136 130 124 116 111 110 110 109 110 108 108 109 101 92 83 78 76 69 55 44 34 24 15 9 5 358 354 350 342 336 334 333 330
146 83 62 67 113 248 209 188 228 191 196 172 180 173 163 156 148 138 130 125 122 116 112 111 108 103 98 92 86 78 76 78 68 57 39 32 22 14 6 359 355 351 345 341 338 335 331 327 322
155 123 90 324 224 230 67 180 254 185 177 174 174 177 171 166 158 150 143 137 130 126 120 113 104 101 94 84 76 67 59 50 36 26 17 7 360 354 350 347 343 341 338 335 330 327 324 320 316
184 167 172 205 200 230 112 226 253 4 245 183 176 175 172 170 166 160 154 147 142 136 131 124 117 105 97 82 66 50 36 21 12 3 354 347 342 339 336 333 331 327 326 323 322 321 319 316 313
181 197 159 108 35 58 217 272 227 96 55 155 167 175 178 176 173 169 164 159 155 151 145 141 134 117 101 77 60 41 13 351 339 334 331 333 331 327 329 330 327 326 325 322 320 316 312 308 307
174 154 102 16 188 253 264 263 237 199 183 170 173 180 184 182 180 178 174 170 166 163 163 161 161 141 126 67 17 358 344 334 329 332 335 339 335 334 333 330 327 327 325 323 321 318 314 311 307
149 173 86 137 163 188 235 251 215 197 179 183 186 186 187 186 186 184 182 178 175 174 175 175 183 158 109 4 349 350 349 343 342 339 334 331 329 327 324 323 323 322 320 319 317 313 311 309 308
195 189 167 170 209 217 151 259 352 234 177 177 185 191 194 192 189 187 189 186 181 184 188 184 192 193 246 337 350 347 337 330 327 324 322 321 320 319 318 318 318 318 318 317 315 312 309 307 305